Onweer radar Meer informatie blitzortung!


Regen radar Meer informatie rain snow radar


Bezoek onze andere website:

Template documentation
and downloads

And another site



15 daagse weersverwachting Aalst (BE)

  • Overzicht
  • Per uur
  • 15 dagen
  • Extra
  • Vergelijk
  • Kaarten
  • Dagkaart
  • Meer »
  • Info
  • Statistieken
  • Directe link
    Temp 6h Neerslag Wind  
 06:12     21:29    Daglengte: 15:17 Vandaag
02:00
14°
1.1 mm
3
08:00
14°
 
4
14:00
19°
1.2 mm
4
20:00
17°
9.7 mm
3
 06:14     21:27    Daglengte: 15:13 Morgen
02:00
14°
 
1
08:00
15°
1.5 mm
2
14:00
18°
6.2 mm
2
20:00
18°
9.4 mm
2
 06:15     21:26    Daglengte: 15:11 Dinsdag 03 Aug
02:00
13°
 
1
08:00
13°
 
2
14:00
20°
 
2
20:00
20°
 
3
Locatie info
Region: Flandern
Latitude: 50.9362°N
Longitude: 4.0427°E
12 masl
Postcode: 9300
Temp/Neerslag /Baro Onweer/Dauwpunt
    Temp Baro 1h Neerslag Dauwpunt Wind UV Bewolking  
 06:12     21:29    Daglengte: 15:17 Vandaag
01:00
14°
1010.5 hPa
14%
13.2°
3
Windvlaag: 4.1 m/s
7%
02:00
14°
1010.3 hPa
14%
12.3°
3
Windvlaag: 4.3 m/s
3%
03:00
13°
1010.1 hPa
15%
12.2°
3
Windvlaag: 4.8 m/s
6%
04:00
13°
1009.8 hPa
14%
12.3°
3
Windvlaag: 5 m/s
9%
05:00
13°
1009.4 hPa
14%
12.5°
3
Windvlaag: 4.5 m/s
48%
06:00
13°
1009.5 hPa
14%
12.7°
3
Windvlaag: 4.4 m/s
61%
07:00
14°
1009.6 hPa
14%
13.0°
3
Windvlaag: 4.6 m/s
64%
08:00
14°
1009.8 hPa
14%
13.5°
4
Windvlaag: 5.1 m/s
65%
09:00
15°
1009.9 hPa
16%
14.2°
4
Windvlaag: 5.1 m/s
62%
10:00
16°
1010.1 hPa
19%
14.5°
4
Windvlaag: 4.5 m/s
56%
11:00
18°
1010.2 hPa
40%
14.1°
4
Windvlaag: 4.4 m/s
19%
12:00
18°
1010.4 hPa 0.5 mm
82%
12.9°
4
Windvlaag: 4.2 m/s
59%
13:00
19°
1010.3 hPa
82%
14.7°
4
Windvlaag: 3.3 m/s
54%
14:00
19°
1010.2 hPa 0.7 mm
82%
15.3°
4
Windvlaag: 2 m/s
56%
15:00
19°
1010.3 hPa 1.1 mm
82%
15.7°
4
Windvlaag: 1.8 m/s
64%
16:00
18°
1010.5 hPa 1.5 mm
82%
15.7°
4
Windvlaag: 1.6 m/s
74%
17:00
19°
1010.4 hPa 1.2 mm
82%
16.3°
4
Windvlaag: 0.3 m/s
56%
18:00
18°
1010.5 hPa 2.2 mm
82%
15.6°
4
Windvlaag: 0.2 m/s
68% warningclass
19:00
18°
1010.6 hPa 2.2 mm
82%
14.6°
3
Windvlaag: -1.1 m/s
56% warningclass
20:00
17°
1010.9 hPa 1.5 mm
81%
13.6°
3
Windvlaag: -0.9 m/s
31%
21:00
16°
1011.1 hPa
81%
13.9°
2
Windvlaag: -1.5 m/s
11%
22:00
16°
1011.8 hPa
80%
14.0°
2
Windvlaag: -1 m/s
42%
23:00
15°
1012.1 hPa
67%
14.0°
2
Windvlaag: -1 m/s
13%
 06:14     21:27    Daglengte: 15:13 Morgen
00:00
15°
1012.3 hPa
19%
13.6°
2
Windvlaag: -1.1 m/s
13%
01:00
14°
1012.3 hPa
37%
13.2°
1
Windvlaag: -0.3 m/s
61%
02:00
14°
1012.2 hPa
80%
13.2°
1
Windvlaag: 0.9 m/s
61%
03:00
14°
1012.1 hPa
80%
13.3°
1
Windvlaag: 0.5 m/s
61%
04:00
14°
1012.2 hPa
79%
13.3°
1
Windvlaag: 0.3 m/s
65%
05:00
14°
1012.1 hPa
82%
13.5°
1
Windvlaag: -0.3 m/s
62%
06:00
14°
1012.4 hPa 1.5 mm
81%
13.5°
1
Windvlaag: -1.7 m/s
67%
07:00
14°
1012.8 hPa
81%
13.8°
2
Windvlaag: -2.2 m/s
66%
08:00
15°
1013.1 hPa
45%
13.9°
2
Windvlaag: -2.2 m/s
63%
09:00
15°
1013.4 hPa 1.4 mm
82%
13.9°
2
Windvlaag: -2 m/s
59%
10:00
15°
1013.8 hPa 1.6 mm
82%
14.1°
2
Windvlaag: -0.8 m/s
57%
11:00
16°
1014.0 hPa 1.6 mm
82%
14.1°
2
Windvlaag: 0.8 m/s
63%
12:00
16°
1014.2 hPa 1.7 mm
82%
13.2°
2
Windvlaag: 1.3 m/s
56%
13:00
17°
1014.2 hPa
82%
12.0°
2
Windvlaag: 1.5 m/s
71%
14:00
18°
1014.1 hPa
82%
11.5°
2
Windvlaag: 2.8 m/s
47%
15:00
19°
1013.9 hPa
82%
11.9°
2
Windvlaag: 3.2 m/s
34%
16:00
19°
1013.8 hPa
82%
11.9°
2
Windvlaag: 2.9 m/s
22% warningclass
17:00
19°
1013.4 hPa 3.3 mm
99%
12.2°
2
Windvlaag: 3 m/s
69%
18:00
18°
1013.2 hPa 3.3 mm
94%
11.1°
2
Windvlaag: -0.9 m/s
88%
19:00
18°
1013.1 hPa 2.8 mm
87%
10.0°
2
Windvlaag: -1.9 m/s
67%
20:00
18°
1013.1 hPa
26%
9.5°
2
Windvlaag: -1.6 m/s
82%
21:00
17°
1013.4 hPa
21%
9.6°
2
Windvlaag: -1.1 m/s
74%
22:00
16°
1013.9 hPa
21%
8.5°
2
Windvlaag: -1 m/s
94%
23:00
15°
1014.0 hPa
21%
9.0°
2
Windvlaag: -1 m/s
89%
 06:15     21:26    Daglengte: 15:11 Dinsdag 03 Aug
00:00
14°
1014.3 hPa
21%
7.8°
2
Windvlaag: -1.3 m/s
89%
01:00
14°
1014.2 hPa
21%
8.2°
2
Windvlaag: -1.4 m/s
88%
02:00
13°
1014.1 hPa
21%
8.2°
1
Windvlaag: -1.2 m/s
89%
03:00
13°
1013.9 hPa
21%
8.2°
1
Windvlaag: -1.5 m/s
78%
04:00
12°
1013.6 hPa
21%
8.3°
2
Windvlaag: -1.5 m/s
94%
05:00
12°
1013.6 hPa
21%
7.5°
2
Windvlaag: -1.5 m/s
93%
06:00
12°
1013.5 hPa
21%
7.7°
2
Windvlaag: -0.9 m/s
89%
07:00
12°
1013.7 hPa
21%
8.2°
1
Windvlaag: -0.8 m/s
81%
08:00
13°
1013.8 hPa
21%
8.7°
2
Windvlaag: -1.2 m/s
88%
09:00
14°
1014.2 hPa
21%
9.3°
2
Windvlaag: -1.9 m/s
88%
10:00
16°
1014.1 hPa
21%
9.2°
2
Windvlaag: -2.2 m/s
82%
11:00
17°
1014.0 hPa
21%
8.7°
3
Windvlaag: -2.1 m/s
66%
12:00
18°
1013.9 hPa
21%
8.5°
3
Windvlaag: -2.5 m/s
54%
13:00
20°
1013.6 hPa
21%
8.5°
2
Windvlaag: -2.8 m/s
45%
14:00
20°
1013.3 hPa
21%
8.4°
2
Windvlaag: -2.9 m/s
12%
15:00
21°
1012.7 hPa
21%
8.1°
2
Windvlaag: 2.7 m/s
12%
16:00
22°
1012.6 hPa
22%
7.9°
2
Windvlaag: 3 m/s
14%
17:00
22°
1012.4 hPa
22%
7.6°
3
Windvlaag: 3.3 m/s
13%
18:00
22°
1012.1 hPa
21%
8.4°
3
Windvlaag: 4.4 m/s
20%
19:00
21°
1012.1 hPa
21%
10.0°
3
Windvlaag: 4.9 m/s
9%
20:00
20°
1012.5 hPa
21%
10.9°
3
Windvlaag: 4.8 m/s
6%
21:00
19°
1012.0 hPa 7.2 mm
100%
11.5°
4
Windvlaag: 5 m/s
31%
22:00
17°
1012.3 hPa 7.2 mm
100%
10.9°
3
Windvlaag: 6.4 m/s
39%
23:00
17°
1012.5 hPa 7.2 mm
100%
10.7°
4
Windvlaag: 7.4 m/s
60%
 06:17     21:24    Daglengte: 15:07 Woensdag 04 Aug
00:00
17°
1012.6 hPa 7.2 mm
100%
10.3°
3
Windvlaag: 7.3 m/s
79%
Temp/Neerslag /Baro Onweer/Dauwpunt
    Temp Baro Neerslag Dauwpunt Wind Bewolking  
 06:12     21:29    Daglengte: 15:17 Vandaag
02:00
14°
1010.3 hPa 1.1 mm 12.3°
3
3%
05:00
13°
1009.4 hPa   12.5°
3
48%
08:00
14°
1009.8 hPa   13.5°
4
65%
11:00
18°
1010.2 hPa   14.1°
4
19%
14:00
19°
1010.2 hPa 1.2 mm 15.3°
4
56%
17:00
19°
1010.4 hPa 3.8 mm 16.3°
4
56%
20:00
17°
1010.9 hPa 5.9 mm 13.6°
3
31%
23:00
15°
1012.1 hPa   14.0°
2
13%
 06:14     21:27    Daglengte: 15:13 Morgen
02:00
14°
1012.2 hPa   13.2°
1
61%
05:00
14°
1012.1 hPa   13.5°
1
62%
08:00
15°
1013.1 hPa 1.5 mm 13.9°
2
63%
11:00
16°
1014.0 hPa 4.6 mm 14.1°
2
63%
14:00
18°
1014.1 hPa 1.7 mm 11.5°
2
47%
17:00
19°
1013.4 hPa 3.3 mm 12.2°
2
69%
20:00
18°
1013.1 hPa 6.1 mm 9.5°
2
82%
23:00
15°
1014.0 hPa   9.0°
2
89%
 06:15     21:26    Daglengte: 15:11 Dinsdag 03 Aug
02:00
13°
1014.1 hPa   8.2°
1
89%
05:00
12°
1013.6 hPa   7.5°
2
93%
08:00
13°
1013.8 hPa   8.7°
2
88%
11:00
17°
1014.0 hPa   8.7°
3
66%
14:00
20°
1013.3 hPa   8.4°
2
12%
17:00
22°
1012.4 hPa   7.6°
3
13%
20:00
20°
1012.5 hPa   10.9°
3
6%
23:00
17°
1012.5 hPa 21.7 mm 10.7°
4
60%
 06:17     21:24    Daglengte: 15:07 Woensdag 04 Aug
02:00
14°
1012.6 hPa 21.7 mm 9.7°
3
54%
05:00
14°
1012.3 hPa 19.4 mm 13.2°
1
1%
08:00
14°
1012.9 hPa 20.4 mm 13.3°
1
1%
11:00
15°
1013.9 hPa 20.6 mm 13.7°
2
1%
14:00
16°
1014.1 hPa 21.0 mm 13.2°
2
1%
17:00
17°
1014.5 hPa 21.5 mm 13.1°
1
1%
20:00
16°
1014.6 hPa 22.4 mm 13.8°
1
1%
23:00
14°
1015.3 hPa 22.6 mm 12.6°
1
1%
 06:18     21:22    Daglengte: 15:04 Donderdag 05 Aug
02:00
12°
1014.8 hPa 22.6 mm 11.6°
2
1%
05:00
12°
1013.6 hPa 22.6 mm 11.2°
2
0%
08:00
13°
1012.5 hPa 22.6 mm 11.3°
3
0%
11:00
15°
1011.1 hPa 22.6 mm 11.8°
5
1%
14:00
18°
1009.1 hPa 22.9 mm 12.3°
6
1%
17:00
15°
1007.1 hPa 23.9 mm 12.8°
6
1%
20:00
14°
1005.1 hPa 25.6 mm 12.5°
6
1%
23:00
14°
1003.7 hPa 25.7 mm 13.3°
6
1%
 06:20     21:20    Daglengte: 15:00 Vrijdag 06 Aug
02:00
14°
1002.9 hPa 26.1 mm 13.8°
5
1%
05:00
14°
1002.0 hPa 26.6 mm 13.2°
7
1%
08:00
15°
1000.6 hPa 32.7 mm 13.7°
8
1%
11:00
15°
1001.2 hPa 37.5 mm 14.4°
8
1%
14:00
17°
1002.1 hPa 38.2 mm 14.9°
8
1%
17:00
18°
1002.9 hPa 39.3 mm 15.5°
8
1%
20:00
17°
1004.8 hPa 40.5 mm 15.1°
8
1%
23:00
15°
1006.8 hPa 40.5 mm 13.3°
7
0%
 06:21     21:19    Daglengte: 14:58 Zaterdag 07 Aug
02:00
14°
1007.9 hPa 40.5 mm 12.8°
6
0%
05:00
14°
1008.4 hPa 40.5 mm 12.9°
6
1%
08:00
15°
1008.9 hPa 40.5 mm 12.1°
5
1%
11:00
18°
1009.4 hPa 40.5 mm 12.1°
6
1%
14:00
21°
1009.0 hPa 40.6 mm 10.8°
5
1%
17:00
21°
1008.6 hPa 40.6 mm 11.4°
5
1%
20:00
19°
1008.1 hPa 40.6 mm 13.8°
3
1%
23:00
17°
1008.2 hPa   13.2°
4
1%
 06:23     21:17    Daglengte: 14:54 Zondag 08 Aug
02:00
17°
1007.6 hPa 81.5 mm 14.2°
5
1%
08:00
17°
1007.3 hPa 90.0 mm 15.5°
6
1%
14:00
22°
1009.1 hPa 96.5 mm 11.7°
10
0%
20:00
17°
1010.8 hPa 99.9 mm 13.2°
9
0%
 06:24     21:15    Daglengte: 14:51 Maandag 09 Aug
02:00
16°
1014.6 hPa 102.4 mm 11.6°
9
0%
08:00
16°
1017.2 hPa 102.8 mm 12.8°
7
1%
14:00
19°
1020.3 hPa 105.2 mm 14.3°
7
1%
20:00
18°
1022.4 hPa 107.5 mm 11.7°
4
1%
 06:26     21:13    Daglengte: 14:47 Dinsdag 10 Aug
02:00
14°
1023.8 hPa 107.6 mm 12.1°
5
1%
08:00
14°
1023.9 hPa 107.6 mm 12.5°
4
1%
14:00
20°
1024.0 hPa 108.3 mm 15.3°
4
1%
20:00
19°
1020.1 hPa 0.9 mm 13.7°
3
45%
 06:27     21:11    Daglengte: 14:44 Woensdag 11 Aug
02:00
14°
1021.1 hPa   11.7°
1
38%
08:00
14°
1021.0 hPa   12.2°
2
39%
14:00
22°
1020.6 hPa 0.4 mm 12.5°
2
43%
20:00
20°
1020.2 hPa 0.3 mm 13.2°
2
46%
 06:29     21:10    Daglengte: 14:41 Donderdag 12 Aug
02:00
14°
1020.8 hPa 0.1 mm 11.9°
0
38%
08:00
15°
1020.4 hPa 0.2 mm 12.5°
1
48%
14:00
23°
1020.0 hPa 0.3 mm 13.2°
1
51%
20:00
21°
1019.6 hPa 0.3 mm 14.1°
2
46%
 06:30     21:08    Daglengte: 14:38 Vrijdag 13 Aug
02:00
15°
1020.2 hPa 0.1 mm 12.6°
0
46%
08:00
16°
1020.1 hPa 0.2 mm 12.9°
1
58%
14:00
23°
1019.9 hPa 0.4 mm 13.4°
1
51%
20:00
21°
1019.2 hPa 0.2 mm 13.9°
1
50%
 06:32     21:06    Daglengte: 14:34 Zaterdag 14 Aug
02:00
16°
1019.7 hPa 0.4 mm 13.0°
1
56%
08:00
16°
1019.4 hPa 0.3 mm 13.1°
1
58%
14:00
23°
1019.1 hPa 0.5 mm 13.8°
1
62%
20:00
21°
1018.4 hPa 0.5 mm 14.4°
2
49%
 06:33     21:04    Daglengte: 14:31 Zondag 15 Aug
02:00
15°
1018.8 hPa 0.2 mm 12.8°
1
42%
08:00
16°
1018.5 hPa 0.2 mm 13.3°
1
48%
14:00
22°
1018.3 hPa 0.3 mm 14.3°
2
60%
20:00
20°
1017.9 hPa 0.5 mm 14.1°
3
53%
  CAPE Lifted Index Hail Supercell Tornado SRH 3km CL BTM PRES CL TOP PRES Swiss DWD icon SMHI TS
 06:12     21:29    Daglengte: 15:17 Vandaag
01:00 0 J/kg 0.6 K 0 % 0 % 0 % 0 m²/s² 0 0 1.86 2
02:00 0 J/kg 1.5 K 0 % 0 % 0 % 0 m²/s² 0 0 2.76 0
03:00 0 J/kg 2.0 K 0 % 0 % 0 % 0 m²/s² 0 0 3.26 1
04:00 0 J/kg 2.0 K 0 % 0 % 0 % 0 m²/s² 0 0 3.05 2
05:00 0 J/kg 1.5 K 0 % 0 % 0 % 0 m²/s² 0 0 2.67 2
06:00 2 J/kg 1.0 K 0 % 0 % 0 % 0 m²/s² 0 0 2.38 2
07:00 2 J/kg 0.4 K 0 % 0 % 0 % 0 m²/s² 0 0 1.81 3
08:00 2 J/kg 0.5 K 0 % 0 % 0 % 0 m²/s² 0 0 2.03 2
09:00 2 J/kg 0.3 K 0 % 0 % 0 % 0 m²/s² 0 0 1.71 3
10:00 5 J/kg 0.2 K 0 % 0 % 0 % 0 m²/s² 0 0 1.67 3
11:00 215 J/kg -0.3 K 0 % 0 % 0 % 0 m²/s² 0 0 1.02 2
12:00 534 J/kg -1.7 K 0 % 0 % 0 % 0 m²/s² 0 0 -0.38 3
13:00 540 J/kg -2.2 K 0 % 0 % 0 % 0 m²/s² 0 0 -1 3
14:00 483 J/kg -2.0 K 0 % 0 % 0 % 0 m²/s² 0 0 -0.8 80
15:00 607 J/kg -2.4 K 0 % 0 % 0 % 0 m²/s² 0 0 -1.2 80
16:00 488 J/kg -2.2 K 0 % 0 % 0 % 0 m²/s² 0 0 -0.88 80
17:00 366 J/kg -1.8 K 0 % 0 % 0 % 0 m²/s² 0 0 -1.41 3
18:00 363 J/kg -1.1 K 0 % 0 % 0 % 0 m²/s² 0 0 -0.47 95
19:00 112 J/kg 0.1 K 0 % 0 % 0 % 0 m²/s² 0 0 1.36 95
20:00 101 J/kg 0.7 K 0 % 0 % 0 % 0 m²/s² 0 0 1.48 80
21:00 86 J/kg 0.7 K 0 % 0 % 0 % 0 m²/s² 0 0 1.33 80
22:00 78 J/kg 0.6 K 0 % 0 % 0 % 0 m²/s² 0 0 1.47 3
23:00 113 J/kg 0.7 K 0 % 0 % 0 % 0 m²/s² 0 0 1.66 3
 06:14     21:27    Daglengte: 15:13 Morgen
00:00 129 J/kg 0.8 K 0 % 0 % 0 % 0 m²/s² 0 0 2.24 3
01:00 67 J/kg 1.2 K 0 % 0 % 0 % 0 m²/s² 0 0 2.01 3
02:00 0 J/kg 1.9 K 0 % 0 % 0 % 0 m²/s² 0 0 2.59 80
03:00 0 J/kg 2.0 K 0 % 0 % 0 % 0 m²/s² 0 0 2.93 80
04:00 0 J/kg 1.9 K 0 % 0 % 0 % 0 m²/s² 0 0 2.53 80
05:00 0 J/kg 1.8 K 0 % 0 % 0 % 0 m²/s² 0 0 2.49 80
06:00 0 J/kg 1.5 K 0 % 0 % 0 % 0 m²/s² 0 0 2.28 80
07:00 2 J/kg 1.3 K 0 % 0 % 0 % 0 m²/s² 0 0 2.14 3
08:00 2 J/kg 1.6 K 0 % 0 % 0 % 0 m²/s² 0 0 1.93 3
09:00 2 J/kg 3.0 K 0 % 0 % 0 % 0 m²/s² 0 0 4.77 80
10:00 4 J/kg 2.0 K 0 % 0 % 0 % 0 m²/s² 0 0 3.17 80
11:00 4 J/kg 1.9 K 0 % 0 % 0 % 0 m²/s² 0 0 4.48 80
12:00 2 J/kg 2.2 K 0 % 0 % 0 % 0 m²/s² 0 0 4.48 80
13:00 56 J/kg 1.7 K 0 % 0 % 0 % 0 m²/s² 0 0 4.19 80
14:00 225 J/kg 0.2 K 0 % 0 % 0 % 0 m²/s² 0 0 2.69 3
15:00 346 J/kg -0.4 K 0 % 0 % 0 % 0 m²/s² 0 0 1.43 3
16:00 401 J/kg -0.6 K 0 % 0 % 0 % 0 m²/s² 0 0 1.35 95
17:00 295 J/kg -0.3 K 0 % 0 % 0 % 0 m²/s² 0 0 2.07 80
18:00 198 J/kg -0.1 K 0 % 0 % 0 % 0 m²/s² 0 0 2.33 3
19:00 94 J/kg 0.6 K 0 % 0 % 0 % 0 m²/s² 0 0 2.82 3
20:00 20 J/kg 1.4 K 0 % 0 % 0 % 0 m²/s² 0 0 3.83 3
21:00 0 J/kg 1.6 K 0 % 0 % 0 % 0 m²/s² 0 0 4.66 3
22:00 0 J/kg 1.7 K 0 % 0 % 0 % 0 m²/s² 0 0 5.12 3
23:00 0 J/kg 1.4 K 0 % 0 % 0 % 0 m²/s² 0 0 4.07 3
 06:15     21:26    Daglengte: 15:11 Dinsdag 03 Aug
00:00 0 J/kg 1.5 K 0 % 0 % 0 % 0 m²/s² 0 0 3.15 3
01:00 0 J/kg 1.7 K 0 % 0 % 0 % 0 m²/s² 0 0 2.54 3
02:00 0 J/kg 1.7 K 0 % 0 % 0 % 0 m²/s² 0 0 2.93 3
03:00 0 J/kg 1.4 K 0 % 0 % 0 % 0 m²/s² 0 0 3.56 3
04:00 0 J/kg 1.6 K 0 % 0 % 0 % 0 m²/s² 0 0 3.97 3
05:00 0 J/kg 1.3 K 0 % 0 % 0 % 0 m²/s² 0 0 3.25 3
06:00 0 J/kg 1.7 K 0 % 0 % 0 % 0 m²/s² 0 0 3.29 3
07:00 0 J/kg 2.5 K 0 % 0 % 0 % 0 m²/s² 0 0 3.61 2
08:00 0 J/kg 3.3 K 0 % 0 % 0 % 0 m²/s² 0 0 4.47 3
09:00 0 J/kg 3.5 K 0 % 0 % 0 % 0 m²/s² 0 0 4.91 3
10:00 0 J/kg 4.6 K 0 % 0 % 0 % 0 m²/s² 0 0 6.13 3
11:00 0 J/kg 4.8 K 0 % 0 % 0 % 0 m²/s² 0 0 6.21 3
12:00 0 J/kg 5.2 K 0 % 0 % 0 % 0 m²/s² 0 0 6.67 3
13:00 0 J/kg 5.0 K 0 % 0 % 0 % 0 m²/s² 0 0 6.47 3
14:00 0 J/kg 4.5 K 0 % 0 % 0 % 0 m²/s² 0 0 5.88 2
15:00 0 J/kg 4.3 K 0 % 0 % 0 % 0 m²/s² 0 0 5.62 1
16:00 2 J/kg 4.4 K 0 % 0 % 0 % 0 m²/s² 0 0 5.66 2
17:00 1 J/kg 4.2 K 0 % 0 % 0 % 0 m²/s² 0 0 5.52 2
18:00 21 J/kg 3.8 K 0 % 0 % 0 % 0 m²/s² 0 0 5.36 2
19:00 38 J/kg 3.2 K 0 % 0 % 0 % 0 m²/s² 0 0 4.85 1
20:00 87 J/kg 3.1 K 0 % 0 % 0 % 0 m²/s² 0 0 4.81 0
21:00 67 J/kg 3.5 K 0 % 0 % 0 % 0 m²/s² 0 0 5.27
22:00 0 J/kg 4.2 K 0 % 0 % 0 % 0 m²/s² 0 0 6.18
23:00 0 J/kg 4.3 K 0 % 0 % 0 % 0 m²/s² 0 0 6.52
 06:17     21:24    Daglengte: 15:07 Woensdag 04 Aug
00:00 0 J/kg 4.7 K 0 % 0 % 0 % 0 m²/s² 0 0 7.01
Temp Baro Wind Neerslag
  EWN Forecast EWN WRFDA DWD ICON FMI HIRLAM MET Norway GFS
 06:12     21:29    Daglengte: 15:17 Vandaag
02:00 13.6° 1010.3 hPa 3.0 m/s 1.1 mm 12.4° 1009.5 hPa 2.9 m/s 2.8 mm 13.6° 1010.6 hPa 2.9 m/s 1.8 mm 13.5° 1009.9 hPa 2.7 m/s 0.0 mm 12.2° 1010.3 hPa 3.5 m/s
05:00 13.1° 1009.4 hPa 3.3 m/s 0.0 mm 10.9° 1008.5 hPa 3.5 m/s 2.8 mm 12.7° 1009.8 hPa 3.1 m/s 0.0 mm 13.5° 1008.6 hPa 2.9 m/s 0.0 mm 11.6° 1009.7 hPa 3.9 m/s
08:00 14.0° 1009.8 hPa 3.8 m/s 0.0 mm 12.9° 1008.2 hPa 3.4 m/s 2.9 mm 14.1° 1010.0 hPa 3.4 m/s 0.0 mm 14.5° 1009.3 hPa 4.2 m/s 0.0 mm 13.5° 1010.0 hPa 4.3 m/s
11:00 17.5° 1010.2 hPa 3.8 m/s 0.0 mm 16.1° 1009.0 hPa 3.7 m/s 3.0 mm 17.8° 1010.4 hPa 3.8 m/s 0.0 mm 18.0° 1009.4 hPa 3.4 m/s 0.0 mm 19.1° 1010.4 hPa 5.4 m/s
14:00 18.8° 1010.2 hPa 3.8 m/s 1.2 mm 19.8° 1008.5 hPa 3.6 m/s 4.9 mm 18.6° 1010.9 hPa 4.1 m/s 0.5 mm 19.2° 1009.4 hPa 3.0 m/s 0.0 mm 20.1° 1010.1 hPa 6.0 m/s
17:00 18.8° 1010.4 hPa 4.0 m/s 3.8 mm 18.4° 1008.5 hPa 5.3 m/s 11.2 mm 18.9° 1010.7 hPa 4.2 m/s 1.5 mm 19.0° 1009.4 hPa 3.8 m/s 0.0 mm 19.4° 1010.9 hPa 5.5 m/s
20:00 17.2° 1010.9 hPa 2.9 m/s 5.9 mm 19.3° 1009.2 hPa 4.8 m/s 17.1 mm 16.8° 1011.2 hPa 2.8 m/s 4.3 mm 17.2° 1010.2 hPa 2.8 m/s 0.0 mm 17.5° 1011.3 hPa 3.6 m/s
23:00 15.1° 1012.1 hPa 1.7 m/s 0.0 mm 14.6° 1010.6 hPa 2.2 m/s 17.2 mm 15.3° 1012.1 hPa 1.4 m/s 0.6 mm 15.2° 1012.0 hPa 1.6 m/s 0.0 mm 13.7° 1012.9 hPa 2.2 m/s
 06:14     21:27    Daglengte: 15:13 Morgen
02:00 14.3° 1012.2 hPa 1.2 m/s 0.0 mm 12.6° 1010.8 hPa 1.6 m/s 17.2 mm 14.6° 1012.3 hPa 1.6 m/s 0.2 mm 15.3° 1011.9 hPa 1.1 m/s 0.0 mm 12.5° 1013.4 hPa 0.8 m/s
05:00 14.3° 1012.1 hPa 1.3 m/s 0.0 mm 12.4° 1010.8 hPa 1.6 m/s 17.2 mm 14.5° 1012.0 hPa 2.1 m/s 1.2 mm 15.1° 1012.1 hPa 1.2 m/s 0.0 mm 12.3° 1013.6 hPa 0.4 m/s
08:00 14.6° 1013.1 hPa 2.1 m/s 1.5 mm 12.4° 1011.7 hPa 2.6 m/s 17.8 mm 14.9° 1012.9 hPa 2.3 m/s 0.3 mm 15.2° 1013.1 hPa 0.8 m/s 0.0 mm 13.9° 1014.4 hPa 1.0 m/s
11:00 15.9° 1014.0 hPa 1.7 m/s 4.6 mm 13.9° 1012.3 hPa 2.8 m/s 18.7 mm 16.6° 1013.4 hPa 2.2 m/s 1.5 mm 16.3° 1014.3 hPa 1.6 m/s 0.0 mm 15.3° 1014.7 hPa 0.4 m/s
14:00 18.0° 1014.1 hPa 2.1 m/s 1.7 mm 19.0° 1012.1 hPa 2.3 m/s 19.7 mm 17.8° 1013.7 hPa 2.1 m/s 1.1 mm 19.6° 1014.6 hPa 2.0 m/s 0.0 mm 17.6° 1014.3 hPa 1.9 m/s
17:00 19.0° 1013.4 hPa 2.2 m/s 3.3 mm 20.2° 1011.7 hPa 2.8 m/s 20.9 mm 17.6° 1013.6 hPa 2.5 m/s 2.2 mm 19.7° 1013.5 hPa 1.4 m/s
20:00 17.8° 1013.1 hPa 2.3 m/s 6.1 mm 19.6° 1012.1 hPa 4.0 m/s 21.6 mm 17.7° 1013.1 hPa 2.2 m/s 0.1 mm 18.9° 1013.0 hPa 0.2 m/s
23:00 14.8° 1014.0 hPa 2.1 m/s 0.0 mm 14.9° 1012.7 hPa 3.1 m/s 21.6 mm 14.9° 1014.0 hPa 1.4 m/s 0.0 mm 14.4° 1013.4 hPa 1.6 m/s
 06:15     21:26    Daglengte: 15:11 Dinsdag 03 Aug
02:00 13.1° 1014.1 hPa 1.4 m/s 0.0 mm 14.0° 1013.0 hPa 1.3 m/s 21.6 mm 13.0° 1014.2 hPa 1.0 m/s 0.0 mm 13.7° 1012.7 hPa 1.2 m/s
05:00 12.2° 1013.6 hPa 1.8 m/s 0.0 mm 14.1° 1011.9 hPa 2.1 m/s 21.6 mm 11.9° 1013.7 hPa 0.9 m/s 0.0 mm 13.4° 1012.2 hPa 1.9 m/s
08:00 12.8° 1013.8 hPa 1.8 m/s 0.0 mm 13.7° 1012.1 hPa 2.0 m/s 21.7 mm 12.9° 1014.0 hPa 1.0 m/s 0.0 mm 13.9° 1012.6 hPa 1.6 m/s
11:00 17.3° 1014.0 hPa 2.6 m/s 0.0 mm 17.6° 1012.0 hPa 2.7 m/s 21.7 mm 17.6° 1014.2 hPa 2.1 m/s 0.0 mm 14.9° 1012.8 hPa 1.4 m/s
14:00 20.4° 1013.3 hPa 2.2 m/s 0.0 mm 20.6° 1011.1 hPa 2.1 m/s 21.7 mm 20.7° 1013.5 hPa 2.2 m/s 0.0 mm 16.1° 1012.6 hPa 1.7 m/s
17:00 21.8° 1012.4 hPa 2.7 m/s 0.0 mm 22.0° 1011.0 hPa 3.3 m/s 21.7 mm 21.8° 1012.7 hPa 2.6 m/s 0.0 mm 18.4° 1012.5 hPa 2.5 m/s
20:00 20.2° 1012.5 hPa 3.4 m/s 0.0 mm 20.3° 1011.5 hPa 4.7 m/s 21.7 mm 20.1° 1012.8 hPa 3.1 m/s 0.0 mm 16.3° 1012.8 hPa 1.3 m/s
23:00 16.5° 1012.5 hPa 3.5 m/s 21.7 mm 16.5° 1012.5 hPa 3.5 m/s 21.7 mm 14.5° 1013.4 hPa 1.2 m/s
 06:17     21:24    Daglengte: 15:07 Woensdag 04 Aug
02:00 14.2° 1012.6 hPa 2.7 m/s 21.7 mm 14.2° 1012.6 hPa 2.7 m/s 21.7 mm 14.1° 1013.1 hPa 0.8 m/s
05:00 13.6° 1012.3 hPa 0.7 m/s 19.4 mm 13.6° 1012.3 hPa 0.7 m/s 19.4 mm
08:00 13.9° 1012.9 hPa 1.1 m/s 20.4 mm 13.9° 1012.9 hPa 1.1 m/s 20.4 mm
11:00 14.7° 1013.9 hPa 1.6 m/s 20.6 mm 14.7° 1013.9 hPa 1.6 m/s 20.6 mm
14:00 16.4° 1014.1 hPa 1.8 m/s 21.0 mm 16.4° 1014.1 hPa 1.8 m/s 21.0 mm
17:00 16.9° 1014.5 hPa 1.4 m/s 21.5 mm 16.9° 1014.5 hPa 1.4 m/s 21.5 mm
20:00 16.5° 1014.6 hPa 1.3 m/s 22.4 mm 16.5° 1014.6 hPa 1.3 m/s 22.4 mm
23:00 13.5° 1015.3 hPa 0.7 m/s 22.6 mm 13.5° 1015.3 hPa 0.7 m/s 22.6 mm
 06:18     21:22    Daglengte: 15:04 Donderdag 05 Aug
02:00 12.4° 1014.8 hPa 1.5 m/s 22.6 mm 12.4° 1014.8 hPa 1.5 m/s 22.6 mm
05:00 11.7° 1013.6 hPa 2.5 m/s 22.6 mm 11.7° 1013.6 hPa 2.5 m/s 22.6 mm
08:00 12.6° 1012.5 hPa 3.0 m/s 22.6 mm 12.6° 1012.5 hPa 3.0 m/s 22.6 mm
11:00 15.4° 1011.1 hPa 4.7 m/s 22.6 mm 15.4° 1011.1 hPa 4.7 m/s 22.6 mm
14:00 17.8° 1009.1 hPa 6.2 m/s 22.9 mm 17.8° 1009.1 hPa 6.2 m/s 22.9 mm
17:00 14.8° 1007.1 hPa 5.7 m/s 23.9 mm 14.8° 1007.1 hPa 5.7 m/s 23.9 mm
20:00 13.7° 1005.1 hPa 6.1 m/s 25.6 mm 13.7° 1005.1 hPa 6.1 m/s 25.6 mm
23:00 14.5° 1003.7 hPa 5.7 m/s 25.7 mm 14.5° 1003.7 hPa 5.7 m/s 25.7 mm
 06:20     21:20    Daglengte: 15:00 Vrijdag 06 Aug
02:00 14.5° 1002.9 hPa 5.2 m/s 26.1 mm 14.5° 1002.9 hPa 5.2 m/s 26.1 mm
05:00 13.8° 1002.0 hPa 6.6 m/s 26.6 mm 13.8° 1002.0 hPa 6.6 m/s 26.6 mm
08:00 14.5° 1000.6 hPa 7.6 m/s 32.7 mm 14.5° 1000.6 hPa 7.6 m/s 32.7 mm
11:00 15.4° 1001.2 hPa 8.5 m/s 37.5 mm 15.4° 1001.2 hPa 8.5 m/s 37.5 mm
14:00 16.5° 1002.1 hPa 8.0 m/s 38.2 mm 16.5° 1002.1 hPa 8.0 m/s 38.2 mm
17:00 18.4° 1002.9 hPa 7.9 m/s 39.3 mm 18.4° 1002.9 hPa 7.9 m/s 39.3 mm
20:00 17.5° 1004.8 hPa 8.0 m/s 40.5 mm 17.5° 1004.8 hPa 8.0 m/s 40.5 mm
23:00 14.9° 1006.8 hPa 6.6 m/s 40.5 mm 14.9° 1006.8 hPa 6.6 m/s 40.5 mm
 06:21     21:19    Daglengte: 14:58 Zaterdag 07 Aug
02:00 13.8° 1007.9 hPa 6.0 m/s 40.5 mm 13.8° 1007.9 hPa 6.0 m/s 40.5 mm
05:00 14.0° 1008.4 hPa 5.7 m/s 40.5 mm 14.0° 1008.4 hPa 5.7 m/s 40.5 mm
08:00 14.8° 1008.9 hPa 5.0 m/s 40.5 mm 14.8° 1008.9 hPa 5.0 m/s 40.5 mm
11:00 18.1° 1009.4 hPa 5.8 m/s 40.5 mm 18.1° 1009.4 hPa 5.8 m/s 40.5 mm
14:00 20.7° 1009.0 hPa 5.5 m/s 40.6 mm 20.7° 1009.0 hPa 5.5 m/s 40.6 mm
17:00 21.3° 1008.6 hPa 5.2 m/s 40.6 mm 21.3° 1008.6 hPa 5.2 m/s 40.6 mm
20:00 18.9° 1008.1 hPa 3.1 m/s 40.6 mm 18.9° 1008.1 hPa 3.1 m/s 40.6 mm
23:00 17.3° 1008.2 hPa 4.1 m/s 40.7 mm 17.3° 1008.2 hPa 4.1 m/s 40.7 mm
 06:23     21:17    Daglengte: 14:54 Zondag 08 Aug
02:00 17.1° 1007.6 hPa 4.8 m/s 40.9 mm 17.1° 1007.6 hPa 4.8 m/s 40.9 mm
08:00 16.5° 1007.3 hPa 5.7 m/s 48.2 mm 16.5° 1007.3 hPa 5.7 m/s 48.2 mm
14:00 21.6° 1009.1 hPa 10.3 m/s 48.3 mm 21.6° 1009.1 hPa 10.3 m/s 48.3 mm
20:00 16.7° 1010.8 hPa 9.2 m/s 51.2 mm 16.7° 1010.8 hPa 9.2 m/s 51.2 mm
 06:24     21:15    Daglengte: 14:51 Maandag 09 Aug
02:00 16.2° 1014.6 hPa 9.3 m/s 51.2 mm 16.2° 1014.6 hPa 9.3 m/s 51.2 mm
08:00 15.7° 1017.2 hPa 7.1 m/s 51.4 mm 15.7° 1017.2 hPa 7.1 m/s 51.4 mm
14:00 18.7° 1020.3 hPa 6.7 m/s 53.3 mm 18.7° 1020.3 hPa 6.7 m/s 53.3 mm
20:00 17.6° 1022.4 hPa 4.0 m/s 53.8 mm 17.6° 1022.4 hPa 4.0 m/s 53.8 mm
 06:26     21:13    Daglengte: 14:47 Dinsdag 10 Aug
02:00 14.2° 1023.8 hPa 4.7 m/s 53.8 mm 14.2° 1023.8 hPa 4.7 m/s 53.8 mm
08:00 14.0° 1023.9 hPa 3.6 m/s 53.8 mm 14.0° 1023.9 hPa 3.6 m/s 53.8 mm
14:00 19.8° 1024.0 hPa 4.3 m/s 54.5 mm 19.8° 1024.0 hPa 4.3 m/s 54.5 mm
20:00 19.4° 1020.1 hPa 2.9 m/s 0.9 mm
 06:27     21:11    Daglengte: 14:44 Woensdag 11 Aug
02:00 13.7° 1021.1 hPa 1.4 m/s 0.0 mm
08:00 14.5° 1021.0 hPa 1.6 m/s 0.0 mm
14:00 21.9° 1020.6 hPa 1.8 m/s 0.4 mm
20:00 19.6° 1020.2 hPa 2.3 m/s 0.3 mm
 06:29     21:10    Daglengte: 14:41 Donderdag 12 Aug
02:00 14.4° 1020.8 hPa 0.4 m/s 0.1 mm
08:00 15.0° 1020.4 hPa 0.5 m/s 0.2 mm
14:00 22.6° 1020.0 hPa 0.9 m/s 0.3 mm
20:00 20.8° 1019.6 hPa 2.2 m/s 0.3 mm
 06:30     21:08    Daglengte: 14:38 Vrijdag 13 Aug
02:00 15.4° 1020.2 hPa 0.4 m/s 0.1 mm
08:00 15.8° 1020.1 hPa 1.1 m/s 0.2 mm
14:00 22.8° 1019.9 hPa 1.4 m/s 0.4 mm
20:00 20.9° 1019.2 hPa 1.3 m/s 0.2 mm
 06:32     21:06    Daglengte: 14:34 Zaterdag 14 Aug
02:00 15.7° 1019.7 hPa 0.7 m/s 0.4 mm
08:00 15.8° 1019.4 hPa 0.8 m/s 0.3 mm
14:00 22.6° 1019.1 hPa 1.4 m/s 0.5 mm
20:00 20.6° 1018.4 hPa 1.9 m/s 0.5 mm
 06:33     21:04    Daglengte: 14:31 Zondag 15 Aug
02:00 15.3° 1018.8 hPa 0.7 m/s 0.2 mm
08:00 15.6° 1018.5 hPa 1.4 m/s 0.2 mm
14:00 22.3° 1018.3 hPa 2.2 m/s 0.3 mm
20:00 20.1° 1017.9 hPa 2.6 m/s 0.5 mm
FMI Hirlam - 7.5 km EWN WRFDA - 12 km DWD ICON - 7 km GFS - 25 km Basiskaart






























































Updatetijd (Europe/Amsterdam) Resolutie Lengte Stap
FMI Hirlam 19:00, 01:00, 07:00, 13:00 7.5 km 49h 1h
EWN WRFDA 22:15, 04:15, 10:15, 16:15 12 km 73h 1h
DWD ICON 23:45, 05:45, 11:45, 17:45 7 km 75h 1h
GFS 20:15, 02:15, 08:15, 14:15 25 km 237h 3h
30+ mm
25-30 mm
20-25 mm
15-20 mm
10-15 mm
6-10 mm
4-6 mm
2-4 mm
1-2 mm
0.5-1 mm
0.2-0.5 mm
0.1-0.2 mm
30+ mm
25-30 mm
20-25 mm
15-20 mm
10-15 mm
6-10 mm
4-6 mm
2-4 mm
1-2 mm
0.5-1 mm
0.2-0.5 mm
0.1-0.2 mm
Sneeuwval
Natte sneeuw
Hagel
Vorst
30+ mm
25-30 mm
20-25 mm
15-20 mm
10-15 mm
6-10 mm
4-6 mm
2-4 mm
1-2 mm
0.5-1 mm
0.2-0.5 mm
0.1-0.2 mm
Sneeuwval
Natte sneeuw
Hagel
Vorst
Onweer
50 mm
40 mm
30 mm
26 mm
22 mm
18 mm
14 mm
10 mm
9 mm
8 mm
7 mm
6 mm
5 mm
4.5 mm
4 mm
3.5 mm
3 mm
2.5 mm
2 mm
1.5 mm
1 mm
0.8 mm
0.6 mm
0.4 mm
0.2 mm
0.05 mm
35°
30°
25°
20°
15°
10°
-5°
-10°
-15°
-20°
-25°
-30°
-35°
33> m/s
29 m/s
25 m/s
21 m/s
17 m/s
14 m/s
11 m/s
8 m/s
5 m/s
3 m/s
0 m/s
2600 J/kg
2400 J/kg
2200 J/kg
2000 J/kg
1800 J/kg
1600 J/kg
1400 J/kg
1200 J/kg
1000 J/kg
800 J/kg
600 J/kg
400 J/kg
200 J/kg
70 dBZ
65 dBZ
60 dBZ
55 dBZ
50 dBZ
45 dBZ
40 dBZ
35 dBZ
30 dBZ
25 dBZ
20 dBZ
15 dBZ
10 dBZ
5 dBZ
-1 K
-2 K
-3 K
-4 K
-5 K
-6 K
-7 K
-8 K
-9 K
950 m²/s²
900 m²/s²
850 m²/s²
800 m²/s²
750 m²/s²
700 m²/s²
650 m²/s²
600 m²/s²
550 m²/s²
500 m²/s²
450 m²/s²
400 m²/s²
350 m²/s²
300 m²/s²
250 m²/s²
200 m²/s²
150 m²/s²
100 m²/s²
46 m/s
44 m/s
42 m/s
40 m/s
38 m/s
36 m/s
34 m/s
32 m/s
30 m/s
28 m/s
26 m/s
24 m/s
22 m/s
20 m/s
16 m/s
12 m/s
8 m/s
4 m/s
30 m/s
28 m/s
26 m/s
24 m/s
22 m/s
20 m/s
18 m/s
16 m/s
14 m/s
12 m/s
10 m/s
8 m/s
6 m/s
4 m/s
2 m/s
3.0
2.8
2.6
2.4
2.2
2.0
1.8
1.6
1.4
1.2
1.0
0.8
0.6
0.4
0.2
15
14
13
12
11
10
9
8
7
6
5
4
3
2
1
90%
80%
70%
60%
50%
40%
30%
20%
10%
42
40
38
36
34
32
30
28
26
24
22
20
18
16
14
12